Location: Newark
(35.8833°N, 14.5000°E)
Time: 19:46:34
(UTC+00:00)

Altair - Pass Details

Date: 28 November 2019
Orbit: 1502 x 1682 km, 47.2° (Epoch: 07 December)

Event Time Altitude Azimuth Distance (km) Brightness Sun altitude
Rises 06:31:10 0° 302° (WNW) 4,641 9.3 6.4°
Reaches altitude 10° 06:34:15 10° 298° (WNW) 3,667 8.9 6.9°
Maximum altitude 06:43:08 55° 224° (SW) 1,795 8.0 8.4°
Drops below altitude 10° 06:52:17 10° 150° (SSE) 3,764 11.0 9.9°
Sets 06:55:30 0° 145° (SE) 4,772 11.6 10.4°
